This is the latest recevied weather packets stored in our database for station/object IT9CNT. If no packets are shown the sender has not sent any weather packets the latest 1 day(s).
| Time | Temp. | Humidity | Pressure | Rain* | Wind** | Luminosity | Snow |
|---|---|---|---|---|---|---|---|
| 1777970584 | 17.22° C | 65% | 1015.2 hPa | 0 mm | 3.13 m/s, 174° | - | - |
| 1777970524 | 17.78° C | 65% | 1015.1 hPa | 0 mm | 3.13 m/s, 186° | - | - |
| 1777970463 | 17.78° C | 65% | 1015.1 hPa | 0 mm | 3.13 m/s, 194° | - | - |
| 1777970404 | 17.22° C | 65% | 1015.3 hPa | 0 mm | 3.13 m/s, 200° | - | - |
| 1777970344 | 17.78° C | 65% | 1015.1 hPa | 0 mm | 3.13 m/s, 205° | - | - |
| 1777970284 | 17.22° C | 65% | 1015.3 hPa | 0 mm | 2.68 m/s, 209° | - | - |
| 1777970224 | 17.78° C | 64% | 1015.1 hPa | 0 mm | 2.68 m/s, 213° | - | - |
| 1777970163 | 17.78° C | 65% | 1015.1 hPa | 0 mm | 2.68 m/s, 215° | - | - |
| 1777970103 | 17.78° C | 66% | 1015.1 hPa | 0 mm | 2.68 m/s, 223° | - | - |
| 1777970043 | 17.22° C | 66% | 1015.1 hPa | 0 mm | 2.68 m/s, 228° | - | - |
| 1777969983 | 17.22° C | 66% | 1015.3 hPa | 0 mm | 2.24 m/s, 225° | - | - |
| 1777969923 | 17.22° C | 66% | 1015.2 hPa | 0 mm | 2.24 m/s, 220° | - | - |
| 1777969863 | 17.22° C | 66% | 1015.1 hPa | 0 mm | 2.68 m/s, 217° | - | - |
| 1777969803 | 17.22° C | 66% | 1015.1 hPa | 0 mm | 2.68 m/s, 213° | - | - |
| 1777969743 | 17.22° C | 66% | 1015.2 hPa | 0 mm | 2.68 m/s, 206° | - | - |
| 1777969683 | 17.22° C | 65% | 1015.2 hPa | 0 mm | 2.68 m/s, 192° | - | - |
| 1777969623 | 17.22° C | 65% | 1015.1 hPa | 0 mm | 2.68 m/s, 182° | - | - |
| 1777969563 | 17.22° C | 65% | 1015.2 hPa | 0 mm | 2.68 m/s, 164° | - | - |
| 1777969503 | 17.22° C | 65% | 1015.1 hPa | 0 mm | 2.68 m/s, 150° | - | - |
| 1777969443 | 17.22° C | 64% | 1015 hPa | 0 mm | 3.13 m/s, 138° | - | - |
| 1777969383 | 17.22° C | 65% | 1015.2 hPa | 0 mm | 3.13 m/s, 134° | - | - |
| 1777969323 | 17.22° C | 64% | 1015.1 hPa | 0 mm | 3.13 m/s, 124° | - | - |
| 1777969263 | 17.78° C | 64% | 1015.2 hPa | 0 mm | 2.68 m/s, 114° | - | - |
| 1777969203 | 17.78° C | 65% | 1015 hPa | 0 mm | 2.68 m/s, 111° | - | - |
| 1777969143 | 17.22° C | 64% | 1014.9 hPa | 0 mm | 2.68 m/s, 116° | - | - |
* Rain latest hour (hover to see other rain measurements)
** Current wind speed in m/s (hover to see current wind gust speed)